Regional Weather Roundup
Issued by NWS Charleston, WV

Home | Current Version | Previous Version | Graphics & Text | Print | Product List | Glossary On
Versions: 1 2 3 4 5 6 7 8 9 10 11 12 13 14 15 16 17 18 19 20 21 22 23 24 25 26 27 28 29 30 31 32 33 34 35 36 37 38 39 40 41
000
ASUS41 KRLX 270310
RWRRLX
West Virginia Regional Weather Roundup
National Weather Service Charleston WV
1000 PM EST FRI DEC 26 2014

Note: "fair" indicates few or no clouds below 12,000 feet with no
significant weather and/or obstructions to visibility.

WVZ003-270400-
Northern Panhandle of West Virginia

CITY           SKY/WX    TMP DP  RH WIND       PRES   REMARKS
WHEELING       PTCLDY    43  30  60 S5        30.21S
$$

WVZ009-270400-
Northwest West Virginia

CITY           SKY/WX    TMP DP  RH WIND       PRES   REMARKS
PARKERSBURG    MOCLDY    41  30  65 CALM      30.24F
$$

WVZ006-270400-
Western West Virginia

CITY           SKY/WX    TMP DP  RH WIND       PRES   REMARKS
HUNTINGTON     MOCLDY    41  33  73 CALM      30.21R
$$

WVZ015-270400-
West Central West Virginia

CITY           SKY/WX    TMP DP  RH WIND       PRES   REMARKS
CHARLESTON     MOCLDY    39  34  82 E5        30.19F
$$

WVZ022-031-270400-
North Central West Virginia

CITY           SKY/WX    TMP DP  RH WIND       PRES   REMARKS
CLARKSBURG     MOCLDY    37  30  75 CALM      30.22F
MORGANTOWN     MOCLDY    44  26  49 CALM      30.24S
$$

WVZ025-035-042-045-270400-
Southern West Virginia

CITY           SKY/WX    TMP DP  RH WIND       PRES   REMARKS
BECKLEY        MOCLDY    44  16  32 SE5       30.22F
LOGAN            N/A     48  25  40 S10       30.19F
BLUEFIELD      CLOUDY    48  12  23 SW3       30.25S
LEWISBURG      MOCLDY    34  29  83 CALM      30.27R
$$

WVZ047-270400-
Northern Mountains of West Virginia

CITY           SKY/WX    TMP DP  RH WIND       PRES   REMARKS
ELKINS         MOCLDY    31  28  89 CALM      30.24S
$$

WVZ052-270400-
Eastern Panhandle of West Virginia

CITY           SKY/WX    TMP DP  RH WIND       PRES   REMARKS
MARTINSBURG    PTCLDY    32  25  75 S3        30.25F
PETERSBURG       N/A     33  32  96 CALM      30.26S
$$


USA.gov is the U.S. government's official web portal to all federal, state and local government web resources and services.